Zurück zum Katalog

STARLINK-34314

AktivKommunikationSSO
NORAD 64146·PAYLOAD·🇺🇸 United States

Gestartet May 27, 2025 von Vandenberg Space Force Base

Loading…

Nächste Überflüge (nächste 24 Stunden)

TLE

AktuellSource: CelesTrak SupGP

Epoche: Sep 14, 2026, 21:02 UTC

1 64146C 25112A   26257.87687500 -.00012957  00000+0 -40231-3 0  2570
2 64146  97.2830 304.9787 0000994  97.5834 260.7387 15.33439017    18

Verfolge STARLINK-34314 in Echtzeit mit AllMySat

Download on the App Store